Location: *
(57.8420°S, 159.8600°W)
Time: 05:03:00
(UTC+00:00)

Cosmos 1328 Rocket - Pass Details

Date: 18 May 2021
Orbit: 600 x 627 km, 82.5° (Epoch: 20 June)

Event Time Altitude Azimuth Distance (km) Brightness Sun altitude
Rises 04:15:49 0° 190° (S) 2,948 7.0 -13.9°
Reaches altitude 10° 04:18:20 10° 178° (S) 2,039 6.0 -14.2°
Maximum altitude 04:22:17 29° 117° (ESE) 1,185 4.4 -14.7°
Enters shadow 04:23:56 23° 81° (E) 1,374 4.8 -14.9°
